| time (UTC) | temp F | wind direction | speed knots | gust knots | rain 1hr in | rain 24hr in | rain mn in | humidity % | barometer mb |
| 20260504141223 | 58 | 272 | 3.5 | 4.3 | 0.00 | 0.00 | 0.00 | 49 | 1010.3 |
| 20260504140720 | 59 | 282 | 0.9 | 1.7 | 0.00 | 0.00 | 0.00 | 49 | 1010.3 |
| 20260504140215 | 61 | 279 | 1.7 | 1.7 | 0.00 | 0.00 | 0.00 | 47 | 1010.1 |
| 20260504130643 | 57 | 343 | 0.9 | 0.9 | 0.00 | 0.00 | 0.00 | 50 | 1010.5 |
| 20260504130140 | 56 | 300 | 3.5 | 4.3 | 0.00 | 0.00 | 0.00 | 50 | 1010.7 |
| 20260504120104 | 49 | 284 | 0.0 | 0.9 | 0.00 | 0.00 | 0.00 | 70 | 1011.1 |
| 20260504110531 | 42 | 283 | 0.9 | 0.9 | 0.00 | 0.00 | 0.00 | 82 | 1010.9 |
| 20260504100453 | 37 | 291 | 0.0 | 0.0 | 0.00 | 0.00 | 0.00 | 91 | 1010.7 |
| 20260504081847 | 40 | 293 | 0.0 | 0.0 | 0.00 | 0.00 | 0.00 | 86 | 1011.0 |
| 20260504081343 | 41 | 291 | 0.0 | 0.0 | 0.00 | 0.00 | 0.00 | 86 | 1010.9 |
| 20260504080839 | 41 | 293 | 0.0 | 0.0 | 0.00 | 0.00 | 0.00 | 86 | 1011.1 |
| 20260504080337 | 41 | 292 | 0.0 | 0.0 | 0.00 | 0.00 | 0.00 | 86 | 1011.0 |
| 20260504070304 | 42 | 291 | 0.0 | 0.0 | 0.00 | 0.00 | 0.00 | 80 | 1011.1 |
| 20260504060224 | 42 | 292 | 0.0 | 0.0 | 0.00 | 0.00 | 0.00 | 75 | 1011.2 |
| 20260504050652 | 44 | 284 | 0.0 | 0.0 | 0.00 | 0.00 | 0.00 | 74 | 1011.6 |
| 20260504050149 | 44 | 291 | 0.0 | 0.0 | 0.00 | 0.00 | 0.00 | 73 | 1011.6 |
| 20260504045646 | 44 | 293 | 0.0 | 0.0 | 0.00 | 0.00 | 0.00 | 71 | 1011.7 |
| 20260504045146 | 44 | 293 | 0.0 | 0.0 | 0.00 | 0.00 | 0.00 | 71 | 1011.8 |
| 20260504044644 | 44 | 292 | 0.0 | 0.0 | 0.00 | 0.00 | 0.00 | 69 | 1011.9 |
| 20260504044140 | 45 | 293 | 0.0 | 0.0 | 0.00 | 0.00 | 0.00 | 68 | 1011.8 |
| 20260504043638 | 45 | 293 | 0.0 | 0.0 | 0.00 | 0.00 | 0.00 | 68 | 1011.6 |
| 20260504043135 | 45 | 286 | 0.0 | 0.0 | 0.00 | 0.00 | 0.00 | 65 | 1011.8 |
| 20260504042632 | 45 | 293 | 0.0 | 0.0 | 0.00 | 0.00 | 0.00 | 65 | 1011.6 |
| 20260504042129 | 45 | 287 | 0.0 | 0.0 | 0.00 | 0.00 | 0.00 | 65 | 1011.5 |
| 20260504041624 | 45 | 292 | 0.0 | 0.0 | 0.00 | 0.00 | 0.00 | 63 | 1011.7 |
| 20260504041121 | 46 | 298 | 0.0 | 0.0 | 0.00 | 0.00 | 0.00 | 64 | 1011.4 |
| 20260504040618 | 45 | 271 | 0.9 | 0.9 | 0.00 | 0.00 | 0.00 | 63 | 1011.3 |
| 20260504040115 | 45 | 297 | 0.0 | 0.0 | 0.00 | 0.00 | 0.00 | 64 | 1011.6 |
| 20260504035612 | 45 | 325 | 0.0 | 0.9 | 0.00 | 0.00 | 0.00 | 64 | 1011.2 |
| 20260504035108 | 45 | 296 | 0.9 | 0.9 | 0.00 | 0.00 | 0.00 | 64 | 1011.3 |
| 20260504034606 | 45 | 293 | 0.0 | 0.0 | 0.00 | 0.00 | 0.00 | 64 | 1011.1 |
| 20260504034103 | 45 | 297 | 0.0 | 0.0 | 0.00 | 0.00 | 0.00 | 61 | 1011.4 |
| 20260504033601 | 45 | 298 | 0.0 | 0.0 | 0.00 | 0.00 | 0.00 | 63 | 1011.3 |
| 20260504033058 | 45 | 301 | 0.0 | 0.0 | 0.00 | 0.00 | 0.00 | 62 | 1011.2 |
| 20260504032555 | 45 | 297 | 0.0 | 0.0 | 0.00 | 0.00 | 0.00 | 61 | 1011.4 |
| 20260504032052 | 45 | 295 | 0.0 | 0.0 | 0.00 | 0.00 | 0.00 | 61 | 1011.2 |
| 20260504031548 | 45 | 296 | 0.0 | 0.0 | 0.00 | 0.00 | 0.00 | 61 | 1011.0 |
| 20260504031044 | 46 | 292 | 0.0 | 0.0 | 0.00 | 0.00 | 0.00 | 59 | 1011.0 |
| 20260504030542 | 46 | 290 | 0.0 | 0.0 | 0.00 | 0.00 | 0.00 | 57 | 1011.2 |
| 20260504030038 | 46 | 294 | 0.0 | 0.0 | 0.00 | 0.00 | 0.00 | 56 | 1011.2 |
| 20260504025535 | 46 | 296 | 0.0 | 0.0 | 0.00 | 0.00 | 0.00 | 56 | 1011.0 |
| 20260504025032 | 46 | 294 | 0.9 | 0.9 | 0.00 | 0.00 | 0.00 | 53 | 1011.2 |
| 20260504024529 | 47 | 301 | 0.0 | 0.0 | 0.00 | 0.00 | 0.00 | 54 | 1011.1 |
| 20260504024026 | 47 | 286 | 0.9 | 1.7 | 0.00 | 0.00 | 0.00 | 51 | 1011.0 |
| 20260504023522 | 47 | 290 | 0.0 | 0.0 | 0.00 | 0.00 | 0.00 | 55 | 1011.2 |
| 20260504023018 | 47 | 283 | 0.9 | 0.9 | 0.00 | 0.00 | 0.00 | 53 | 1011.2 |
| 20260504022514 | 47 | 289 | 0.0 | 0.9 | 0.00 | 0.00 | 0.00 | 52 | 1011.1 |
| 20260504022011 | 47 | 298 | 0.0 | 0.0 | 0.00 | 0.00 | 0.00 | 51 | 1011.3 |
| 20260504021509 | 47 | 294 | 0.0 | 0.9 | 0.00 | 0.00 | 0.00 | 51 | 1011.3 |
| 20260504021006 | 47 | 303 | 0.0 | 0.9 | 0.00 | 0.00 | 0.00 | 49 | 1011.3 |
| 20260504020502 | 47 | 293 | 0.9 | 0.9 | 0.00 | 0.00 | 0.00 | 49 | 1011.2 |
| 20260504015959 | 47 | 276 | 3.5 | 4.3 | 0.00 | 0.00 | 0.00 | 48 | 1011.1 |
| 20260504015455 | 47 | 273 | 1.7 | 2.6 | 0.00 | 0.00 | 0.00 | 50 | 1011.2 |
| 20260504014951 | 47 | 263 | 2.6 | 4.3 | 0.00 | 0.00 | 0.00 | 49 | 1011.2 |
| 20260504014447 | 47 | 304 | 0.9 | 0.9 | 0.00 | 0.00 | 0.00 | 51 | 1011.2 |
| 20260504013944 | 46 | 268 | 0.9 | 1.7 | 0.00 | 0.00 | 0.00 | 50 | 1011.5 |
| 20260504013443 | 45 | 7 | 0.9 | 1.7 | 0.00 | 0.00 | 0.00 | 53 | 1011.0 |
| 20260504012938 | 45 | 300 | 0.0 | 0.9 | 0.00 | 0.00 | 0.00 | 52 | 1011.1 |
| 20260504012437 | 46 | 291 | 0.0 | 0.0 | 0.00 | 0.00 | 0.00 | 52 | 1011.1 |
| 20260504011934 | 46 | 292 | 0.0 | 0.9 | 0.00 | 0.00 | 0.00 | 51 | 1010.9 |
| 20260504011430 | 46 | 291 | 0.0 | 0.9 | 0.00 | 0.00 | 0.00 | 51 | 1010.9 |
| 20260504010926 | 46 | 316 | 1.7 | 1.7 | 0.00 | 0.00 | 0.00 | 51 | 1010.9 |
| 20260504010422 | 46 | 296 | 0.0 | 0.0 | 0.00 | 0.00 | 0.00 | 51 | 1010.5 |
| 20260504005919 | 46 | 311 | 0.0 | 0.9 | 0.00 | 0.00 | 0.00 | 49 | 1010.6 |
| 20260504005415 | 47 | 298 | 0.0 | 0.0 | 0.00 | 0.00 | 0.00 | 48 | 1010.5 |
| 20260504004913 | 47 | 293 | 0.9 | 0.9 | 0.00 | 0.00 | 0.00 | 47 | 1010.4 |
| 20260504004411 | 47 | 260 | 0.9 | 0.9 | 0.00 | 0.00 | 0.00 | 46 | 1010.4 |
| 20260504003907 | 47 | 296 | 0.0 | 0.0 | 0.00 | 0.00 | 0.00 | 46 | 1010.3 |
| 20260504003404 | 47 | 299 | 1.7 | 2.6 | 0.00 | 0.00 | 0.00 | 47 | 1010.2 |
| 20260504002900 | 46 | 297 | 0.9 | 0.9 | 0.00 | 0.00 | 0.00 | 46 | 1010.2 |
| 20260504002357 | 46 | 296 | 0.0 | 0.9 | 0.00 | 0.00 | 0.00 | 46 | 1010.0 |
| 20260504001855 | 46 | 295 | 0.0 | 0.0 | 0.00 | 0.00 | 0.00 | 46 | 1010.0 |
| 20260504001352 | 47 | 286 | 0.9 | 0.9 | 0.00 | 0.00 | 0.00 | 46 | 1010.1 |
| 20260504000849 | 47 | 293 | 0.0 | 0.9 | 0.00 | 0.00 | 0.00 | 48 | 1009.6 |
| 20260504000346 | 47 | 279 | 0.9 | 0.9 | 0.00 | 0.00 | 0.00 | 47 | 1009.7 |
| 20260503235844 | 47 | 310 | 0.9 | 0.9 | 0.00 | 0.00 | 0.00 | 45 | 1009.9 |
| 20260503235341 | 47 | 287 | 0.9 | 1.7 | 0.00 | 0.00 | 0.00 | 44 | 1009.6 |
| 20260503234838 | 47 | 290 | 0.0 | 0.0 | 0.00 | 0.00 | 0.00 | 46 | 1009.4 |
| 20260503234336 | 47 | 296 | 0.0 | 0.0 | 0.00 | 0.00 | 0.00 | 44 | 1009.3 |
| 20260503233833 | 48 | 287 | 0.9 | 0.9 | 0.00 | 0.00 | 0.00 | 46 | 1009.3 |
| 20260503233329 | 48 | 279 | 0.9 | 1.7 | 0.00 | 0.00 | 0.00 | 43 | 1009.2 |
| 20260503232826 | 49 | 283 | 0.0 | 0.9 | 0.00 | 0.00 | 0.00 | 41 | 1009.4 |
| 20260503232323 | 49 | 290 | 0.0 | 0.9 | 0.00 | 0.00 | 0.00 | 41 | 1009.1 |
| 20260503231821 | 49 | 284 | 0.9 | 0.9 | 0.00 | 0.00 | 0.00 | 42 | 1009.4 |
| 20260503231318 | 49 | 273 | 1.7 | 1.7 | 0.00 | 0.00 | 0.00 | 42 | 1009.0 |
| 20260503230814 | 50 | 272 | 0.0 | 0.9 | 0.00 | 0.00 | 0.00 | 43 | 1009.2 |
| 20260503230311 | 50 | 294 | 0.0 | 0.0 | 0.00 | 0.00 | 0.00 | 43 | 1009.2 |
| 20260503225809 | 50 | 297 | 0.9 | 0.9 | 0.00 | 0.00 | 0.00 | 42 | 1009.1 |
| 20260503225304 | 50 | 292 | 0.0 | 0.0 | 0.00 | 0.00 | 0.00 | 44 | 1009.2 |
| 20260503224801 | 51 | 308 | 1.7 | 1.7 | 0.00 | 0.00 | 0.00 | 43 | 1008.9 |
| 20260503224258 | 51 | 296 | 0.9 | 0.9 | 0.00 | 0.00 | 0.00 | 42 | 1009.0 |
| 20260503223756 | 51 | 296 | 0.0 | 0.0 | 0.00 | 0.00 | 0.00 | 42 | 1009.0 |
| 20260503223253 | 51 | 273 | 0.0 | 0.9 | 0.00 | 0.00 | 0.00 | 40 | 1009.0 |
| 20260503222749 | 51 | 263 | 1.7 | 1.7 | 0.00 | 0.00 | 0.00 | 41 | 1009.2 |
| 20260503222247 | 52 | 259 | 1.7 | 1.7 | 0.00 | 0.00 | 0.00 | 42 | 1008.9 |
| 20260503221746 | 52 | 298 | 0.0 | 0.9 | 0.00 | 0.00 | 0.00 | 42 | 1008.9 |
| 20260503221243 | 51 | 269 | 1.7 | 1.7 | 0.00 | 0.00 | 0.00 | 43 | 1008.9 |
| 20260503220739 | 51 | 294 | 0.9 | 1.7 | 0.00 | 0.00 | 0.00 | 42 | 1008.9 |
| 20260503220236 | 50 | 291 | 1.7 | 2.6 | 0.00 | 0.00 | 0.00 | 43 | 1008.9 |
| 20260503215733 | 51 | 255 | 0.9 | 1.7 | 0.00 | 0.00 | 0.00 | 41 | 1009.0 |
| 20260503215230 | 52 | 265 | 4.3 | 7.8 | 0.00 | 0.00 | 0.00 | 42 | 1009.0 |
| 20260503214728 | 52 | 304 | 0.9 | 1.7 | 0.00 | 0.00 | 0.00 | 43 | 1009.0 |
| 20260503214225 | 52 | 273 | 0.0 | 0.9 | 0.00 | 0.00 | 0.00 | 42 | 1009.0 |
| 20260503213723 | 52 | 288 | 0.9 | 0.9 | 0.00 | 0.00 | 0.00 | 41 | 1009.3 |
| 20260503213220 | 53 | 309 | 0.9 | 0.9 | 0.00 | 0.00 | 0.00 | 43 | 1009.1 |
| 20260503212716 | 52 | 288 | 1.7 | 1.7 | 0.00 | 0.00 | 0.00 | 40 | 1009.1 |
| 20260503212214 | 53 | 296 | 0.9 | 1.7 | 0.00 | 0.00 | 0.00 | 42 | 1009.1 |
| 20260503211712 | 53 | 278 | 2.6 | 2.6 | 0.00 | 0.00 | 0.00 | 42 | 1009.1 |
| 20260503211208 | 53 | 270 | 1.7 | 1.7 | 0.00 | 0.00 | 0.00 | 42 | 1009.1 |
| 20260503210703 | 53 | 301 | 1.7 | 1.7 | 0.00 | 0.00 | 0.00 | 43 | 1009.0 |
| 20260503210201 | 51 | 243 | 3.5 | 4.3 | 0.00 | 0.00 | 0.00 | 42 | 1009.1 |
| 20260503205655 | 51 | 300 | 1.7 | 1.7 | 0.00 | 0.00 | 0.00 | 42 | 1009.1 |
| 20260503205152 | 51 | 295 | 1.7 | 2.6 | 0.00 | 0.00 | 0.00 | 45 | 1009.3 |
| 20260503204649 | 51 | 294 | 1.7 | 1.7 | 0.00 | 0.00 | 0.00 | 44 | 1009.2 |
| 20260503204147 | 51 | 271 | 1.7 | 1.7 | 0.00 | 0.00 | 0.00 | 45 | 1009.3 |
| 20260503203644 | 51 | 301 | 1.7 | 2.6 | 0.00 | 0.00 | 0.00 | 45 | 1009.6 |
| 20260503203141 | 49 | 303 | 0.0 | 0.0 | 0.00 | 0.00 | 0.00 | 49 | 1009.3 |
| 20260503202638 | 50 | 281 | 3.5 | 4.3 | 0.00 | 0.00 | 0.00 | 46 | 1009.3 |
| 20260503202137 | 51 | 280 | 1.7 | 2.6 | 0.00 | 0.00 | 0.00 | 45 | 1009.4 |
| 20260503201634 | 49 | 341 | 1.7 | 2.6 | 0.00 | 0.00 | 0.00 | 48 | 1009.3 |
| 20260503201131 | 51 | 251 | 3.5 | 5.2 | 0.00 | 0.00 | 0.00 | 44 | 1009.3 |
| 20260503200627 | 50 | 114 | 1.7 | 2.6 | 0.00 | 0.00 | 0.00 | 45 | 1009.5 |
| 20260503200124 | 49 | 293 | 0.9 | 0.9 | 0.00 | 0.00 | 0.00 | 49 | 1009.4 |
| 20260503195621 | 49 | 321 | 1.7 | 2.6 | 0.00 | 0.00 | 0.00 | 47 | 1009.7 |
| 20260503195118 | 49 | 294 | 0.0 | 0.9 | 0.00 | 0.00 | 0.00 | 47 | 1009.6 |
| 20260503194610 | 49 | 299 | 1.7 | 1.7 | 0.00 | 0.00 | 0.00 | 48 | 1009.6 |
| 20260503194110 | 49 | 312 | 3.5 | 4.3 | 0.00 | 0.00 | 0.00 | 47 | 1009.6 |
| 20260503193607 | 49 | 259 | 0.0 | 0.9 | 0.00 | 0.00 | 0.00 | 49 | 1009.9 |
| 20260503193102 | 49 | 321 | 1.7 | 1.7 | 0.00 | 0.00 | 0.00 | 49 | 1009.7 |
| 20260503192558 | 50 | 273 | 1.7 | 1.7 | 0.00 | 0.00 | 0.00 | 46 | 1009.8 |
| 20260503192054 | 49 | 295 | 0.9 | 0.9 | 0.00 | 0.00 | 0.00 | 46 | 1009.7 |
| 20260503191551 | 48 | 1 | 1.7 | 1.7 | 0.00 | 0.00 | 0.00 | 49 | 1009.8 |
| 20260503191048 | 48 | 332 | 0.9 | 1.7 | 0.00 | 0.00 | 0.00 | 49 | 1010.0 |
| 20260503190545 | 48 | 354 | 2.6 | 2.6 | 0.00 | 0.00 | 0.00 | 46 | 1009.9 |
| 20260503190042 | 48 | 284 | 0.9 | 1.7 | 0.00 | 0.00 | 0.00 | 47 | 1010.2 |
| 20260503185539 | 48 | 292 | 0.9 | 0.9 | 0.00 | 0.00 | 0.00 | 47 | 1009.9 |
| 20260503185038 | 48 | 321 | 3.5 | 5.2 | 0.00 | 0.00 | 0.00 | 47 | 1009.9 |
| 20260503184535 | 48 | 356 | 1.7 | 1.7 | 0.00 | 0.00 | 0.00 | 47 | 1010.1 |
| 20260503184031 | 48 | 279 | 2.6 | 4.3 | 0.00 | 0.00 | 0.00 | 47 | 1009.8 |
| 20260503183528 | 49 | 268 | 2.6 | 4.3 | 0.00 | 0.00 | 0.00 | 49 | 1009.9 |
| 20260503183025 | 48 | 290 | 0.9 | 1.7 | 0.00 | 0.00 | 0.00 | 49 | 1009.7 |
| 20260503182524 | 48 | 324 | 2.6 | 6.1 | 0.00 | 0.00 | 0.00 | 45 | 1010.0 |
| 20260503182021 | 47 | 313 | 1.7 | 1.7 | 0.00 | 0.00 | 0.00 | 48 | 1009.9 |
| 20260503181518 | 47 | 296 | 0.9 | 0.9 | 0.00 | 0.00 | 0.00 | 49 | 1009.9 |
| 20260503181014 | 48 | 292 | 1.7 | 1.7 | 0.00 | 0.00 | 0.00 | 49 | 1009.8 |
| 20260503180512 | 47 | 316 | 0.9 | 0.9 | 0.00 | 0.00 | 0.00 | 49 | 1009.9 |
| 20260503180009 | 47 | 296 | 1.7 | 2.6 | 0.00 | 0.00 | 0.00 | 50 | 1009.8 |
| 20260503175506 | 47 | 321 | 1.7 | 1.7 | 0.00 | 0.00 | 0.00 | 50 | 1009.8 |
| 20260503175003 | 47 | 259 | 1.7 | 1.7 | 0.00 | 0.00 | 0.00 | 48 | 1010.0 |
| 20260503174501 | 48 | 317 | 0.9 | 0.9 | 0.00 | 0.00 | 0.00 | 47 | 1009.9 |
| 20260503173955 | 48 | 294 | 0.0 | 0.0 | 0.00 | 0.00 | 0.00 | 50 | 1009.9 |
| 20260503173451 | 48 | 295 | 0.9 | 0.9 | 0.00 | 0.00 | 0.00 | 50 | 1009.9 |
| 20260503172948 | 48 | 307 | 0.9 | 1.7 | 0.00 | 0.00 | 0.00 | 49 | 1009.9 |
| 20260503172446 | 47 | 303 | 2.6 | 2.6 | 0.00 | 0.00 | 0.00 | 48 | 1009.8 |
| 20260503171942 | 46 | 300 | 1.7 | 1.7 | 0.00 | 0.00 | 0.00 | 52 | 1009.8 |
| 20260503171439 | 46 | 271 | 2.6 | 4.3 | 0.00 | 0.00 | 0.00 | 51 | 1009.8 |
| 20260503170937 | 46 | 293 | 1.7 | 2.6 | 0.00 | 0.00 | 0.00 | 51 | 1009.8 |
| 20260503170432 | 46 | 276 | 0.9 | 0.9 | 0.00 | 0.00 | 0.00 | 52 | 1009.6 |
| 20260503150825 | 48 | 301 | 0.0 | 0.0 | 0.00 | 0.00 | 0.00 | 56 | 1010.3 |
| 20260503150321 | 45 | 324 | 2.6 | 2.6 | 0.00 | 0.00 | 0.00 | 60 | 1010.3 |